Location: Ammerl�gen
(47.2167°N, 9.6000°E)
Time: 04:41:31
(UTC+00:00)

NOAA 19 - Pass Details

Date: 02 December 2021
Orbit: 841 x 860 km, 99.2° (Epoch: 16 January)

Event Time Altitude Azimuth Distance (km) Brightness Sun altitude
Rises 17:16:19 0° 144° (SE) 3,386 8.1 -16.8°
Reaches altitude 10° 17:18:44 10° 139° (SE) 2,455 7.4 -17.2°
Maximum altitude 17:23:55 47° 67° (ENE) 1,106 5.4 -18.1°
Drops below altitude 10° 17:29:08 10° 355° (N) 2,477 7.6 -19.0°
Sets 17:31:35 0° 350° (N) 3,419 8.3 -19.4°
